Price, UT

4:04 PM MDT on April 23, 2018 (GMT -0600)
Carbon County

Weather History for KPUC - January, 2013

Change the Weather History Date:

Tuesday, January 15, 2013

  Actual Average Record
Temperature  
Mean Temperature 4 °F -  
Max Temperature 12 °F 34 °F 52 °F (2014)
Min Temperature -5 °F 16 °F -6 °F (2007)
Degree Days  
Heating Degree Days 62    
Moisture  
Dew Point -8 °F    
Average Humidity 57    
Maximum Humidity 66    
Minimum Humidity 47    
Precipitation  
Precipitation 0.00 in - - ()
Sea Level Pressure  
Sea Level Pressure 30.60 in    
Wind  
Wind Speed 4 mph (ENE)    
Max Wind Speed 9 mph    
Max Gust Speed -    
Visibility 10 miles    
Events      
Averages and records for this station are not official NWS values.
T = Trace of Precipitation, MM = Missing Value Source: NWS Daily Summary

Daily Weather History Graph

Daily Weather History Graph

Search for Another Location

Airport or City:

Astronomy

Jan. 15, 2013 Rise Set
Actual Time 7:41 AM MST 5:23 PM MST
Civil Twilight 7:12 AM MST 5:53 PM MST
Nautical Twilight 6:39 AM MST 6:26 PM MST
Astronomical Twilight 6:06 AM MST 6:58 PM MST
Moon 9:50 AM MST (1/15) 10:15 PM MST (1/15)
Length of Visible Light 10h 40m
Length of Day
9h 41m
Waxing Crescent, 20% of the Moon is Illuminated
Jan 15
Waxing Crescent
Jan 18
First Quarter
Jan 26
Full
Feb 3
Last Quarter
Feb 10
New

Hourly Weather History & Observations

Time (MST) Temp. Windchill Dew Point Humidity Pressure Visibility Wind Dir Wind Speed Gust Speed Precip Events Conditions
12:53 AM -0.9 °F -14.1 °F -11.9 °F 60% 30.49 in 10.0 mi NNE 6.9 mph - N/A   Clear
1:53 AM -2.2 °F - -13.0 °F 60% 30.16 in 10.0 mi Calm Calm - N/A   Clear
2:53 AM -0.9 °F -14.1 °F -11.9 °F 60% 30.50 in 10.0 mi NE 6.9 mph - N/A   Clear
3:53 AM 1.0 °F -10.3 °F -9.9 °F 60% 30.46 in 10.0 mi ENE 5.8 mph - N/A   Clear
4:53 AM 1.0 °F -14.0 °F -9.9 °F 60% 30.49 in 10.0 mi NE 9.2 mph - N/A   Clear
5:53 AM -0.0 °F -14.2 °F -11.0 °F 60% 30.53 in 10.0 mi ESE 8.1 mph - N/A   Clear
6:53 AM -5.1 °F -13.6 °F -14.1 °F 65% 30.58 in 10.0 mi NNE 3.5 mph - N/A   Clear
7:53 AM -4.0 °F -14.6 °F -13.0 °F 65% 30.58 in 10.0 mi NNE 4.6 mph - N/A   Clear
8:53 AM 6.1 °F - -7.1 °F 55% 30.63 in 10.0 mi Calm Calm - N/A   Clear
9:53 AM 9.0 °F - -7.1 °F 48% 30.66 in 10.0 mi Calm Calm - N/A   Clear
10:53 AM 8.1 °F - -6.0 °F 53% 30.66 in 10.0 mi Calm Calm - N/A   Clear
11:53 AM 9.0 °F 0.6 °F -5.1 °F 53% 30.60 in 10.0 mi SE 4.6 mph - N/A   Clear
12:53 PM 10.9 °F 4.7 °F -5.1 °F 49% 30.61 in 10.0 mi SSE 3.5 mph - N/A   Clear
1:53 PM 12.9 °F - -4.0 °F 47% 30.60 in 10.0 mi Calm Calm - N/A   Clear
2:53 PM 12.9 °F 6.9 °F -4.0 °F 47% 30.61 in 10.0 mi South 3.5 mph - N/A   Clear
3:53 PM 12.9 °F - -4.0 °F 47% 30.61 in 10.0 mi Calm Calm - N/A   Clear
4:53 PM 12.0 °F 5.9 °F -4.0 °F 49% 30.63 in 10.0 mi SSE 3.5 mph - N/A   Clear
5:53 PM 9.0 °F 2.4 °F -5.1 °F 53% 30.64 in 10.0 mi East 3.5 mph - N/A   Clear
6:53 PM 3.9 °F -5.3 °F -6.0 °F 64% 30.72 in 10.0 mi NE 4.6 mph - N/A   Clear
7:53 PM 3.0 °F - -7.1 °F 63% 30.73 in 10.0 mi Calm Calm - N/A   Clear
8:53 PM 3.9 °F -3.4 °F -6.0 °F 64% 30.69 in 10.0 mi NE 3.5 mph - N/A   Clear
9:53 PM 3.9 °F -3.4 °F -6.0 °F 64% 30.69 in 10.0 mi ENE 3.5 mph - N/A   Clear
10:53 PM 1.9 °F -10.6 °F -7.1 °F 66% 30.73 in 10.0 mi NE 6.9 mph - N/A   Clear
11:53 PM 3.0 °F -9.3 °F -7.1 °F 63% 30.72 in 10.0 mi NE 6.9 mph - N/A   Clear